sat.trackr.live / text

‹ back to catalog

STARLINK-4000

NORAD 52605 · 2022-052H

PAYLOAD ACTIVE UNKNOWN

§ Identity

Operator
Country
US
Launch date
2022-05-14
Launch site
AFETR
Launch vehicle
Mass (kg)
RCS (m²)

Purposes: comms

External: N2YO · Heavens-Above · Gunter

§ Orbital elements

Epoch: 2026-09-20T03:47:00.807072Z

Period
93.85 min
Inclination
53.1610°
Eccentricity
0.0001447
Mean motion
15.34381144 rev/d
Perigee alt
461.8 km
Apogee alt
463.7 km
Semi-major
6,840.9 km
B*
-2.3264e-5
RAAN
116.9924°
Arg perigee
84.2479°
Mean anomaly
275.8688°
Rev number
24,033

§ Raw data

STARLINK-40001 52605U 22052H   26263.15764823 -.00001162  00000+0 -23264-4 0  99962 52605  53.1610 116.9924 0001447  84.2479 275.8688 15.34381144240338

JSON: /api/v1/satellites/52605 · /tle

For live sub-satellite position, see the globe view (requires WebGL).

§ Visibility from observer

Set your observer location to see the next 7 days of passes ≥ 10°. The values pass through the URL so the page stays shareable.

No JS? Fill the form by hand. The geolocation button needs JavaScript.